QPF
0.00 0.00 0.00 0.00 0.00 0.00 0.00 0.00 0.00 0.00 0.00 0.00 0.00 0.00 0.00 0.00 0.00 0.00 0.00 0.00 0.00 0.00 0.00 0.00 0.00 0.00 0.00 0.00 0.00 0.00 0.00 0.00 0.00 0.00 0.00 0.00 0.00 0.00 0.00 0.00 0.00 0.00 0.00 0.00 0.00
0.00 0.00 0.00 0.00 0.00 0.00 0.00 0.00 0.00 0.00 0.00 0.00 0.00 0.00 0.00 0.00 0.00 0.00 0.00 0.00 0.00 0.00 0.00 0.00 0.00 0.00 0.00 0.00 0.00 0.00 0.00 0.00 0.00 0.00 0.00 0.00 0.00 0.00 0.00 0.00 0.00 0.00 0.00 0.00 0.00
0.00 0.00 0.00 0.00 0.00 0.00 0.00 0.00 0.00 0.00 0.00 0.00 0.00 0.00 0.00 0.00 0.00 0.00 0.00 0.00 0.00 0.00 0.00 0.00 0.00 0.00 0.00 0.00 0.00 0.00 0.00 0.00 0.00 0.00 0.00 0.00 0.00 0.00 0.00 0.00 0.00 0.00 0.00 0.00 0.00
0.00 0.00 0.00 0.00 0.00 0.00 0.00 0.00 0.00 0.00 0.00 0.00 0.00 0.00 0.00 0.00 0.00 0.00 0.00 0.00 0.00 0.00 0.00 0.00 0.00 0.00 0.00 0.00 0.00 0.00 0.00 0.00 0.00 0.00 0.00 0.00 0.00 0.00 0.00 0.00 0.00 0.00 0.00 0.00 0.00
0.00 0.00 0.00 0.00 0.00 0.00 0.00 0.00 0.00 0.00 0.00 0.00 0.00 0.00 0.00 0.00 0.00 0.00 0.00 0.00 0.00 0.00 0.00 0.00 0.00 0.00 0.00 0.00 0.00 0.00 0.00 0.00 0.00 0.00 0.00 0.00 0.00 0.00 0.00 0.00 0.00 0.00 0.00 0.00 0.00
0.00 0.00 0.00 0.00 0.00 0.00 0.00 0.00 0.00 0.00 0.00 0.00 0.00 0.00 0.00 0.00 0.00 0.00 0.00 0.00 0.00 0.00 0.00 0.00 0.00 0.00 0.00 0.00 0.00 0.00 0.00 0.00 0.00 0.00 0.00 0.00 0.00 0.00 0.00 0.00 0.00 0.00 0.00 0.00 0.00
0.00 0.00 0.00 0.00 0.00 0.00 0.00 0.00 0.00 0.00 0.00 0.00 0.00 0.00 0.00 0.00 0.00 0.00 0.00 0.00 0.00 0.00 0.00 0.00 0.00 0.00 0.00 0.00 0.00 0.00 0.00 0.00 0.00 0.00 0.00 0.00 0.00 0.00 0.00 0.00 0.00 0.00 0.00 0.00 0.00
0.00 0.00 0.00 0.00 0.00 0.00 0.00 0.00 0.00 0.00 0.00 0.00 0.00 0.00 0.00 0.00 0.00 0.00 0.00 0.00 0.00 0.00 0.00 0.00 0.00 0.00 0.00 0.00 0.00 0.00 0.00 0.00 0.00 0.00 0.00 0.00 0.00 0.00 0.00 0.00 0.00 0.00 0.00 0.00 0.00
0.00 0.00 0.00 0.00 0.00 0.00 0.00 0.00 0.00 0.00 0.00 0.00 0.00 0.00 0.00 0.00 0.00 0.00 0.00 0.00 0.00 0.00 0.00 0.00 0.00 0.00 0.00 0.00 0.00 0.00 0.00 0.00 0.00 0.00 0.00 0.00 0.00 0.00 0.00 0.00 0.00 0.00 0.00 0.00 0.00
0.00 0.00 0.00 0.00 0.00 0.00 0.00 0.00 0.00 0.00 0.00 0.00 0.00 0.00 0.00 0.00 0.00 0.00 0.00 0.00 0.00 0.00 0.00 0.00 0.00 0.00 0.00 0.00 0.00 0.00 0.00 0.00 0.00 0.00 0.00 0.00 0.00 0.00 0.00 0.00 0.00 0.00 0.00 0.00 0.00
0.01 0.00 0.00 0.00 0.00 0.00 0.00 0.00 0.00 0.00 0.00 0.00 0.00 0.00 0.00 0.00 0.00 0.00 0.00 0.00 0.00 0.00 0.00 0.00 0.00 0.00 0.00 0.00 0.00 0.00 0.00 0.00 0.00 0.00 0.00 0.00 0.00 0.00 0.00 0.00 0.00 0.00 0.00 0.00 0.00
0.01 0.01 0.00 0.00 0.00 0.00 0.00 0.00 0.00 0.00 0.00 0.00 0.00 0.00 0.00 0.00 0.00 0.00 0.00 0.00 0.00 0.00 0.00 0.00 0.00 0.00 0.00 0.00 0.00 0.00 0.00 0.00 0.00 0.00 0.00 0.00 0.00 0.00 0.00 0.00 0.00 0.00 0.00 0.00 0.00
0.01 0.00 0.01 0.00 0.00 0.00 0.00 0.00 0.00 0.00 0.00 0.00 0.00 0.00 0.00 0.00 0.00 0.00 0.00 0.00 0.00 0.00 0.00 0.00 0.00 0.00 0.00 0.00 0.00 0.00 0.00 0.00 0.00 0.00 0.00 0.00 0.00 0.00 0.00 0.00 0.00 0.00 0.00 0.00 0.00
0.00 0.00 0.01 0.02 0.00 0.00 0.00 0.00 0.00 0.00 0.00 0.00 0.00 0.00 0.00 0.00 0.00 0.00 0.00 0.00 0.00 0.00 0.00 0.00 0.00 0.00 0.00 0.00 0.00 0.00 0.00 0.00 0.00 0.00 0.00 0.00 0.00 0.00 0.00 0.00 0.00 0.00 0.00 0.00 0.00
0.01 0.00 0.02 0.03 0.00 0.00 0.00 0.00 0.00 0.00 0.00 0.00 0.00 0.00 0.00 0.00 0.00 0.00 0.00 0.00 0.00 0.00 0.00 0.00 0.00 0.00 0.00 0.00 0.00 0.00 0.00 0.00 0.00 0.00 0.00 0.00 0.00 0.00 0.00 0.00 0.00 0.00 0.00 0.00 0.00
0.01 0.00 0.02 0.02 0.00 0.00 0.00 0.00 0.00 0.00 0.00 0.00 0.00 0.00 0.00 0.00 0.00 0.00 0.00 0.00 0.00 0.00 0.00 0.00 0.00 0.00 0.00 0.00 0.00 0.00 0.00 0.00 0.00 0.00 0.00 0.00 0.00 0.00 0.00 0.00 0.00 0.00 0.00 0.00 0.00
0.01 0.01 0.02 0.01 0.00 0.00 0.00 0.00 0.00 0.00 0.00 0.00 0.00 0.00 0.00 0.00 0.00 0.00 0.00 0.00 0.00 0.00 0.00 0.00 0.00 0.00 0.00 0.00 0.00 0.00 0.00 0.00 0.00 0.00 0.00 0.00 0.00 0.00 0.00 0.00 0.00 0.00 0.00 0.00 0.00
0.00 0.01 0.01 0.01 0.00 0.00 0.00 0.00 0.00 0.00 0.00 0.00 0.00 0.00 0.00 0.00 0.00 0.00 0.00 0.00 0.00 0.00 0.00 0.00 0.00 0.00 0.00 0.00 0.00 0.00 0.00 0.00 0.00 0.00 0.00 0.00 0.00 0.00 0.00 0.00 0.00 0.00 0.00 0.00 0.00
0.00 0.01 0.03 0.01 0.00 0.00 0.00 0.00 0.00 0.00 0.00 0.00 0.00 0.00 0.00 0.00 0.00 0.00 0.00 0.00 0.00 0.00 0.00 0.00 0.00 0.00 0.00 0.00 0.00 0.00 0.00 0.00 0.00 0.00 0.00 0.00 0.00 0.00 0.00 0.00 0.00 0.00 0.00 0.00 0.00
0.00 0.03 0.01 0.00 0.00 0.00 0.01 0.00 0.00 0.00 0.00 0.00 0.00 0.00 0.00 0.00 0.00 0.00 0.00 0.00 0.00 0.00 0.00 0.00 0.00 0.00 0.00 0.00 0.00 0.00 0.00 0.00 0.00 0.00 0.00 0.00 0.00 0.00 0.00 0.00 0.00 0.00 0.00 0.00 0.00
0.01 0.03 0.00 0.03 0.03 0.01 0.00 0.00 0.00 0.00 0.00 0.00 0.00 0.00 0.00 0.00 0.00 0.00 0.00 0.00 0.00 0.00 0.00 0.00 0.00 0.00 0.00 0.00 0.00 0.00 0.00 0.00 0.00 0.00 0.00 0.00 0.00 0.00 0.00 0.00 0.00 0.00 0.00 0.00 0.00
0.01 0.02 0.04 0.07 0.03 0.00 0.00 0.00 0.00 0.00 0.00 0.00 0.00 0.00 0.00 0.00 0.00 0.00 0.00 0.00 0.00 0.00 0.00 0.00 0.00 0.00 0.00 0.00 0.00 0.00 0.00 0.00 0.00 0.00 0.00 0.00 0.00 0.00 0.00 0.00 0.00 0.00 0.00 0.00 0.00
0.01 0.01 0.07 0.09 0.02 0.01 0.00 0.00 0.00 0.00 0.00 0.00 0.00 0.00 0.00 0.00 0.00 0.00 0.00 0.00 0.00 0.00 0.00 0.00 0.00 0.00 0.00 0.00 0.00 0.00 0.00 0.00 0.00 0.00 0.00 0.00 0.00 0.00 0.00 0.00 0.00 0.00 0.00 0.00 0.00
0.01 0.01 0.02 0.04 0.03 0.02 0.02 0.02 0.00 0.00 0.00 0.00 0.00 0.00 0.00 0.00 0.00 0.00 0.00 0.00 0.00 0.00 0.00 0.00 0.00 0.00 0.00 0.00 0.00 0.00 0.00 0.00 0.00 0.00 0.00 0.00 0.00 0.00 0.00 0.00 0.00 0.00 0.00 0.00 0.00
0.02 0.01 0.02 0.03 0.01 0.02 0.03 0.02 0.02 0.01 0.00 0.00 0.00 0.00 0.00 0.00 0.00 0.00 0.00 0.00 0.00 0.00 0.00 0.00 0.00 0.00 0.00 0.00 0.00 0.00 0.00 0.00 0.00 0.00 0.00 0.00 0.00 0.00 0.00 0.00 0.00 0.00 0.00 0.00 0.00
0.01 0.01 0.01 0.01 0.01 0.03 0.03 0.01 0.01 0.01 0.00 0.00 0.00 0.00 0.00 0.00 0.00 0.00 0.00 0.00 0.00 0.00 0.00 0.00 0.00 0.00 0.00 0.00 0.00 0.00 0.00 0.00 0.00 0.00 0.00 0.00 0.00 0.00 0.00 0.00 0.00 0.00 0.00 0.00 0.00
0.00 0.00 0.01 0.02 0.02 0.02 0.02 0.01 0.02 0.02 0.00 0.00 0.00 0.00 0.00 0.00 0.00 0.00 0.00 0.00 0.00 0.00 0.00 0.00 0.00 0.00 0.00 0.00 0.00 0.00 0.00 0.00 0.00 0.00 0.00 0.00 0.00 0.00 0.00 0.00 0.00 0.00 0.00 0.00 0.00
MSLP
1019.77 1019.45 1019.01 1018.55 1018.33 1017.86 1017.75 1017.50 1017.12 1016.95 1016.97 1016.54 1015.91 1015.44 1014.87 1014.17 1013.18 1013.38 1011.55 1009.62 1010.13 1011.20 1011.29 1011.35 1011.15 1010.79 1010.46 1009.85 1009.78 1009.51 1008.52 1006.92 1006.48 1006.54 1006.02 1006.26 1006.77 1007.12 1007.69 1007.62 1008.56 1008.97 1009.26 1009.92 1010.89
1019.53 1019.27 1018.81 1018.89 1018.75 1018.29 1018.18 1017.96 1017.36 1016.96 1016.33 1015.95 1015.59 1015.55 1014.83 1013.64 1012.70 1010.76 1009.36 1009.28 1009.45 1010.34 1010.29 1010.19 1009.96 1010.17 1009.52 1009.17 1009.17 1008.78 1007.69 1006.76 1006.60 1006.52 1006.24 1006.01 1006.23 1006.56 1007.51 1007.58 1008.22 1009.13 1009.85 1010.77 1010.95
1020.06 1019.55 1019.23 1019.07 1018.87 1018.56 1018.63 1018.23 1017.37 1017.20 1017.03 1017.14 1016.63 1015.90 1014.59 1013.87 1011.84 1008.06 1008.44 1009.01 1009.23 1009.53 1009.02 1009.09 1008.88 1009.23 1008.71 1008.42 1008.37 1008.03 1007.40 1006.92 1006.58 1006.36 1006.13 1005.96 1005.93 1006.51 1006.75 1006.41 1006.99 1007.66 1008.29 1010.18 1010.45
1020.25 1019.88 1019.66 1019.45 1019.16 1018.77 1018.00 1017.51 1017.33 1017.02 1016.93 1016.60 1015.64 1015.14 1014.08 1013.13 1010.00 1008.31 1008.55 1009.13 1009.34 1009.00 1008.62 1008.40 1008.27 1008.23 1007.72 1007.51 1007.70 1007.66 1007.28 1007.02 1006.55 1006.40 1006.34 1006.04 1006.12 1006.31 1006.52 1006.09 1007.13 1007.31 1008.01 1009.23 1009.77
1019.68 1019.43 1019.21 1018.79 1018.18 1017.94 1018.07 1017.97 1017.63 1016.98 1016.77 1016.17 1015.66 1014.82 1013.49 1011.77 1009.16 1008.36 1008.92 1009.10 1009.33 1009.21 1008.09 1007.81 1007.51 1007.30 1006.79 1006.75 1006.81 1006.99 1006.67 1006.48 1006.35 1006.36 1006.29 1006.39 1006.27 1006.20 1005.95 1006.40 1007.36 1007.55 1008.09 1008.69 1009.37
1019.60 1019.37 1019.02 1018.75 1018.49 1018.24 1017.84 1017.13 1016.68 1016.37 1015.91 1015.57 1015.42 1015.29 1013.50 1010.50 1008.02 1007.87 1007.81 1008.33 1008.26 1008.52 1007.89 1007.30 1006.50 1006.50 1006.22 1006.10 1006.18 1006.31 1006.34 1006.11 1006.13 1005.96 1006.22 1006.22 1005.99 1006.65 1005.65 1006.32 1007.17 1007.67 1007.80 1008.40 1009.15
1019.41 1019.32 1019.11 1018.85 1018.42 1017.76 1017.24 1016.73 1016.22 1015.57 1015.09 1015.22 1015.28 1014.74 1012.37 1008.50 1007.65 1007.62 1007.54 1007.38 1006.85 1007.17 1006.81 1006.74 1006.23 1005.89 1006.14 1005.90 1006.12 1006.26 1006.29 1005.85 1005.85 1005.81 1005.82 1006.24 1005.93 1005.95 1005.60 1006.40 1006.76 1007.38 1007.58 1008.11 1009.12
1018.72 1018.64 1018.51 1018.28 1017.85 1017.25 1016.62 1015.87 1015.35 1014.91 1014.63 1014.76 1014.64 1013.82 1010.22 1007.66 1007.55 1007.09 1007.17 1007.19 1007.06 1006.87 1006.65 1006.39 1006.39 1006.02 1005.51 1005.52 1006.01 1005.77 1005.58 1004.85 1004.35 1005.72 1006.03 1006.31 1005.33 1005.28 1005.39 1006.13 1006.09 1006.52 1007.15 1007.97 1009.04
1018.13 1017.97 1017.83 1017.65 1017.26 1016.86 1016.28 1015.57 1014.79 1014.17 1014.02 1014.09 1013.80 1012.64 1008.37 1007.24 1006.96 1006.18 1006.31 1006.27 1006.33 1006.57 1006.68 1006.31 1006.18 1005.67 1005.84 1005.38 1005.13 1004.67 1004.48 1003.92 1004.08 1004.91 1005.15 1005.56 1004.73 1004.45 1004.97 1005.46 1005.48 1005.78 1006.61 1007.52 1008.60
1017.61 1017.49 1017.34 1017.04 1016.82 1016.48 1015.89 1014.56 1013.70 1013.88 1013.33 1013.22 1012.49 1011.91 1007.49 1005.46 1005.11 1005.14 1005.27 1005.79 1005.44 1005.69 1006.05 1005.93 1005.33 1005.01 1004.73 1004.33 1003.42 1003.70 1003.90 1003.83 1004.25 1004.44 1004.99 1004.52 1004.30 1004.19 1004.37 1004.34 1004.87 1005.30 1006.00 1007.01 1007.99
1017.13 1017.01 1016.95 1016.77 1016.52 1016.12 1015.15 1013.03 1012.99 1012.50 1011.55 1009.06 1008.04 1006.59 1005.12 1004.95 1005.08 1004.56 1004.87 1005.23 1004.89 1004.73 1004.17 1004.38 1003.94 1002.85 1002.87 1003.46 1003.57 1003.58 1004.00 1003.85 1003.91 1004.38 1004.76 1004.19 1003.56 1003.58 1003.61 1003.53 1003.76 1004.39 1005.29 1006.39 1007.45
1016.91 1016.74 1016.49 1016.38 1016.18 1015.84 1015.15 1013.05 1013.00 1013.48 1010.38 1007.93 1007.17 1006.22 1005.37 1005.46 1004.32 1003.84 1004.15 1004.08 1003.80 1003.03 1003.23 1003.45 1002.12 1002.16 1002.88 1003.17 1003.77 1004.04 1003.80 1003.81 1003.91 1004.54 1004.73 1003.99 1003.25 1003.07 1002.84 1002.59 1002.81 1003.50 1004.48 1005.70 1007.00
1016.50 1016.37 1016.23 1016.05 1015.92 1015.30 1014.21 1013.49 1013.66 1013.29 1010.61 1005.88 1004.69 1004.10 1004.57 1004.85 1003.61 1002.56 1003.15 1002.79 1002.35 1002.17 1001.79 1001.13 1001.10 1002.11 1002.31 1002.80 1003.56 1003.58 1003.45 1003.63 1003.99 1004.24 1004.47 1003.76 1002.92 1001.93 1002.07 1001.93 1002.23 1003.15 1003.76 1004.88 1006.10
1016.18 1016.02 1015.87 1015.87 1015.90 1013.69 1013.26 1013.55 1013.62 1013.53 1009.42 1003.49 1002.85 1001.24 1002.27 1003.42 1002.59 1002.18 1002.05 1001.77 1001.45 1000.62 1000.76 1000.84 1000.66 1001.12 1002.08 1002.33 1002.99 1002.64 1003.37 1003.95 1004.08 1004.32 1003.55 1003.70 1002.23 1001.69 1001.28 1000.97 1001.20 1002.13 1003.12 1004.05 1005.48
1015.91 1015.65 1015.59 1015.88 1014.34 1013.63 1013.45 1013.59 1013.46 1012.97 1007.25 999.85 1000.19 1000.00 999.97 1000.65 999.38 999.82 1001.12 1001.20 1000.23 999.96 1000.26 999.51 999.85 1000.86 1001.14 1001.46 1002.23 1002.47 1002.96 1003.71 1004.01 1003.98 1003.86 1003.22 1002.34 1001.05 1000.58 1000.60 1000.39 1000.69 1001.81 1003.37 1004.84
1015.48 1015.36 1015.30 1015.31 1015.13 1013.64 1013.47 1013.60 1013.08 1010.32 1002.82 999.35 999.07 999.00 999.15 999.93 998.98 998.47 999.95 1000.61 1000.54 1000.01 999.80 999.58 1000.02 1000.59 1000.80 1001.43 1002.01 1002.81 1003.46 1003.91 1004.15 1003.94 1003.22 1002.32 1001.77 1000.49 999.95 1000.14 1000.08 1000.39 1001.44 1002.88 1004.49
1014.88 1014.87 1015.02 1014.91 1014.71 1013.33 1013.59 1012.83 1010.51 1004.95 999.34 997.86 997.75 997.99 997.85 998.22 998.57 998.62 998.80 999.01 998.37 998.97 998.69 999.43 999.29 1000.07 1000.59 1000.91 1001.95 1002.34 1002.82 1002.76 1002.86 1002.59 1002.09 1002.14 1001.79 1000.37 1000.00 999.99 1000.03 1000.37 1001.11 1002.82 1004.23
1014.23 1014.45 1013.98 1014.17 1014.47 1014.21 1013.37 1011.56 1006.00 999.57 998.29 996.66 996.44 996.92 996.67 996.87 997.26 997.40 997.76 997.70 997.91 997.40 997.24 997.77 998.34 998.95 999.70 999.86 1000.58 1001.30 1001.65 1001.35 1001.26 1001.51 1001.27 1002.04 1001.02 999.65 999.74 999.96 1000.34 1000.85 1001.49 1002.71 1004.08
1013.71 1013.37 1013.08 1013.23 1013.82 1014.44 1013.48 1009.15 1000.98 999.08 997.48 997.06 996.65 996.03 995.75 995.64 995.58 996.34 995.98 995.75 996.14 996.08 995.56 996.38 996.80 997.79 998.96 999.63 999.87 1000.22 1000.85 1001.30 1001.35 1001.34 1001.64 1000.89 1000.28 999.97 999.61 999.42 1000.00 1000.84 1001.89 1002.94 1004.06
1012.60 1012.08 1011.49 1011.97 1013.13 1014.21 1012.63 1006.52 1001.50 999.34 998.06 996.77 995.98 995.25 994.59 994.73 995.03 994.77 994.85 994.30 994.98 995.63 995.93 995.98 996.79 997.66 998.62 999.48 999.34 999.26 1000.68 1001.13 1001.26 1000.81 1000.51 1000.07 999.86 998.96 998.95 999.00 999.85 1000.77 1001.85 1003.09 1003.96
1012.13 1011.52 1010.61 1011.12 1012.97 1013.10 1009.98 1005.28 1003.53 1000.51 999.64 998.56 996.51 995.11 993.94 993.78 993.86 993.50 992.60 993.07 993.69 994.64 995.77 995.98 996.54 997.29 998.23 998.13 998.06 999.07 999.47 1000.05 1000.21 1000.22 999.87 999.64 998.93 998.76 998.87 999.09 999.44 1000.19 1001.51 1002.79 1003.62
1010.98 1010.61 1010.20 1011.34 1012.23 1011.51 1009.37 1005.74 1004.99 1002.45 1001.48 999.75 998.36 996.02 994.21 993.43 993.11 992.70 992.23 992.29 992.77 993.64 994.48 995.07 996.50 996.65 996.96 997.53 997.91 998.12 998.70 999.42 999.57 1000.01 1000.12 999.47 998.37 998.49 998.77 999.00 999.48 1000.04 1001.12 1002.11 1002.98
1010.71 1010.36 1010.48 1011.08 1010.42 1009.91 1008.12 1006.62 1005.59 1004.00 1003.47 1001.54 999.49 997.36 995.33 993.99 993.29 992.46 992.40 992.60 992.78 993.17 994.00 995.43 995.76 996.50 996.75 997.76 997.64 997.33 998.00 998.58 999.32 999.58 998.94 998.63 998.14 998.25 998.61 998.98 999.46 999.83 1000.76 1001.95 1002.64
1010.59 1010.53 1010.70 1010.91 1010.26 1008.75 1007.71 1006.71 1006.07 1004.67 1004.10 1003.70 1001.59 999.68 997.49 994.74 993.57 992.45 992.32 992.51 992.69 992.97 994.05 995.02 995.18 994.82 994.16 995.27 996.93 997.35 997.34 997.75 998.24 998.47 998.52 998.00 997.64 997.36 997.85 998.26 999.01 999.69 1000.58 1001.42 1002.27
1010.41 1010.29 1010.34 1009.89 1010.05 1009.07 1008.16 1007.18 1005.89 1005.16 1004.55 1003.41 1001.27 999.63 997.48 995.59 994.29 993.42 992.91 992.85 993.09 993.16 994.33 994.48 994.42 994.94 995.09 995.26 995.80 996.24 996.57 996.93 997.25 997.60 997.50 997.29 996.95 996.96 996.96 997.32 997.95 999.22 1000.25 1001.16 1001.81
1010.81 1011.12 1010.89 1010.03 1009.49 1008.70 1008.08 1006.67 1005.67 1004.93 1004.90 1002.61 1001.94 1000.31 998.65 997.05 995.36 994.17 993.43 993.18 992.47 992.78 993.57 994.29 994.00 994.56 994.64 994.99 995.07 995.42 995.71 996.04 996.47 996.64 996.82 996.78 996.38 996.44 996.67 996.83 997.73 998.70 999.66 1000.37 1001.00
1010.95 1011.02 1010.80 1009.54 1009.09 1008.43 1007.70 1006.70 1005.44 1004.79 1004.03 1002.60 1001.70 1000.54 999.60 998.27 997.99 996.70 995.65 994.67 993.44 992.96 993.04 993.83 994.09 994.28 994.07 994.61 994.95 994.60 994.02 994.76 995.39 995.62 995.86 995.69 996.02 996.01 996.12 996.79 997.18 998.05 998.98 999.56 1000.20
Thickness
5666 5673 5679 5687 5691 5698 5702 5706 5711 5714 5717 5723 5731 5735 5742 5749 5758 5759 5766 5786 5781 5774 5774 5773 5770 5768 5769 5763 5765 5764 5739 5740 5746 5743 5753 5769 5755 5763 5761 5752 5746 5744 5738 5737 5732
5662 5667 5673 5676 5680 5687 5689 5693 5699 5705 5712 5718 5725 5727 5735 5747 5754 5766 5783 5784 5785 5777 5774 5765 5760 5761 5756 5756 5755 5747 5740 5744 5760 5757 5753 5764 5761 5759 5744 5742 5735 5730 5732 5727 5725
5651 5658 5663 5666 5670 5676 5678 5682 5692 5696 5698 5699 5706 5713 5725 5733 5746 5779 5785 5778 5780 5778 5780 5775 5771 5761 5750 5758 5751 5749 5737 5753 5757 5761 5762 5759 5758 5759 5745 5740 5744 5735 5737 5724 5722
5645 5650 5653 5655 5660 5666 5672 5678 5681 5686 5688 5694 5703 5708 5718 5725 5727 5770 5773 5768 5770 5774 5773 5768 5763 5750 5747 5743 5753 5734 5750 5751 5755 5758 5754 5750 5757 5747 5746 5751 5750 5747 5742 5729 5720
5644 5647 5650 5655 5662 5665 5664 5667 5671 5678 5682 5688 5692 5702 5717 5719 5737 5759 5760 5761 5761 5762 5763 5760 5753 5751 5743 5750 5751 5738 5749 5752 5755 5753 5752 5752 5744 5744 5747 5754 5747 5743 5736 5729 5721
5638 5640 5644 5647 5650 5654 5657 5665 5670 5676 5682 5685 5689 5692 5705 5710 5754 5753 5761 5759 5759 5755 5756 5761 5761 5763 5753 5751 5746 5750 5749 5750 5751 5749 5748 5741 5744 5736 5751 5751 5739 5733 5731 5728 5718
5628 5630 5634 5638 5643 5649 5655 5661 5667 5675 5682 5681 5683 5687 5702 5734 5752 5752 5757 5758 5766 5760 5755 5764 5768 5758 5756 5744 5754 5749 5733 5744 5743 5746 5740 5740 5730 5729 5749 5743 5736 5730 5730 5725 5715
5625 5626 5628 5632 5637 5644 5651 5660 5666 5672 5676 5676 5678 5685 5707 5747 5744 5750 5751 5750 5757 5759 5759 5765 5764 5756 5753 5757 5745 5736 5738 5727 5750 5739 5736 5729 5712 5736 5748 5735 5736 5735 5730 5721 5712
5620 5622 5625 5627 5632 5638 5645 5652 5661 5668 5671 5672 5676 5682 5709 5743 5735 5749 5752 5743 5749 5751 5752 5758 5755 5746 5741 5732 5728 5737 5718 5731 5736 5741 5736 5727 5724 5744 5749 5738 5737 5737 5730 5722 5712
5615 5616 5619 5623 5626 5631 5638 5650 5659 5661 5667 5668 5676 5673 5714 5730 5744 5748 5754 5747 5743 5742 5736 5737 5741 5730 5736 5733 5716 5722 5720 5729 5721 5735 5729 5727 5726 5740 5747 5745 5736 5735 5731 5722 5712
5605 5607 5610 5614 5618 5624 5634 5653 5661 5665 5671 5694 5700 5711 5722 5731 5739 5739 5743 5736 5740 5735 5727 5738 5726 5726 5741 5740 5739 5734 5723 5722 5732 5735 5721 5724 5729 5736 5744 5745 5741 5737 5729 5720 5712
5592 5595 5599 5603 5608 5613 5622 5642 5644 5639 5665 5692 5695 5706 5718 5720 5719 5730 5740 5725 5727 5725 5736 5724 5723 5749 5747 5740 5727 5722 5718 5719 5729 5728 5717 5721 5725 5738 5741 5744 5747 5739 5731 5722 5712
5577 5580 5585 5589 5595 5602 5614 5624 5623 5628 5648 5693 5706 5710 5710 5713 5715 5729 5734 5733 5728 5725 5730 5729 5743 5745 5738 5728 5715 5719 5716 5717 5711 5720 5717 5717 5718 5732 5741 5747 5746 5738 5737 5728 5716
5559 5563 5567 5573 5581 5600 5605 5608 5609 5613 5643 5694 5699 5720 5720 5713 5708 5734 5741 5737 5731 5730 5737 5731 5750 5737 5725 5720 5722 5711 5728 5717 5710 5700 5692 5717 5693 5722 5735 5740 5744 5739 5732 5728 5717
5537 5543 5548 5551 5573 5583 5588 5590 5595 5602 5631 5718 5711 5729 5730 5716 5742 5737 5745 5732 5727 5734 5733 5733 5738 5727 5721 5726 5729 5716 5729 5714 5709 5701 5698 5707 5697 5720 5738 5727 5738 5746 5741 5730 5719
5507 5516 5525 5533 5542 5557 5566 5569 5579 5600 5636 5689 5704 5705 5710 5711 5728 5743 5729 5735 5735 5727 5733 5735 5748 5733 5730 5731 5726 5724 5708 5705 5703 5700 5679 5708 5705 5716 5728 5729 5739 5746 5740 5730 5718
5479 5487 5496 5509 5520 5534 5540 5552 5573 5613 5693 5682 5689 5701 5708 5705 5711 5718 5715 5714 5718 5702 5708 5721 5725 5733 5734 5716 5718 5713 5699 5682 5678 5681 5681 5706 5696 5716 5733 5739 5741 5740 5740 5727 5718
5449 5458 5471 5483 5491 5500 5513 5534 5576 5667 5672 5694 5697 5694 5695 5710 5710 5715 5710 5708 5722 5727 5724 5710 5700 5725 5732 5725 5711 5707 5706 5695 5670 5677 5698 5700 5689 5721 5738 5742 5741 5737 5735 5727 5715
5429 5437 5448 5457 5462 5466 5477 5520 5626 5655 5671 5670 5674 5671 5687 5703 5714 5709 5715 5719 5727 5738 5729 5718 5719 5743 5732 5733 5729 5710 5696 5719 5699 5707 5685 5707 5716 5731 5737 5739 5737 5730 5724 5717 5712
5425 5431 5440 5438 5436 5432 5441 5536 5608 5641 5647 5659 5651 5673 5674 5689 5694 5706 5710 5730 5723 5735 5745 5731 5708 5727 5729 5726 5727 5723 5719 5688 5696 5671 5669 5699 5701 5712 5725 5731 5731 5724 5719 5714 5710
5416 5417 5429 5424 5412 5411 5440 5538 5569 5607 5609 5617 5641 5660 5680 5681 5693 5700 5721 5731 5736 5731 5734 5730 5719 5713 5719 5708 5712 5708 5706 5709 5710 5706 5685 5682 5705 5734 5728 5732 5731 5730 5724 5715 5711
5414 5409 5419 5407 5400 5405 5427 5519 5530 5552 5563 5592 5605 5642 5665 5681 5684 5697 5708 5723 5740 5736 5720 5734 5712 5697 5710 5728 5731 5723 5714 5709 5693 5685 5696 5699 5710 5741 5736 5736 5734 5732 5725 5722 5717
5402 5406 5407 5399 5407 5412 5453 5476 5488 5514 5527 5552 5576 5616 5650 5660 5662 5692 5702 5719 5727 5724 5716 5715 5698 5681 5695 5696 5713 5711 5716 5716 5710 5706 5696 5691 5703 5740 5736 5731 5733 5731 5727 5720 5718
5394 5390 5395 5388 5400 5432 5446 5453 5458 5493 5506 5517 5544 5573 5608 5637 5666 5677 5689 5703 5717 5721 5714 5714 5703 5703 5704 5709 5710 5697 5710 5718 5711 5693 5695 5703 5714 5732 5732 5730 5730 5730 5727 5723 5718
5388 5385 5385 5396 5393 5409 5424 5437 5451 5466 5486 5506 5536 5565 5596 5617 5642 5656 5678 5686 5696 5705 5701 5705 5694 5703 5712 5720 5714 5710 5708 5711 5703 5709 5698 5711 5716 5727 5736 5737 5738 5732 5726 5721 5718
5372 5372 5370 5388 5396 5409 5416 5434 5449 5459 5462 5497 5512 5540 5569 5593 5623 5643 5663 5672 5683 5696 5690 5700 5695 5701 5697 5712 5713 5704 5712 5711 5709 5715 5711 5714 5717 5740 5743 5747 5738 5731 5725 5722 5722
5372 5370 5371 5389 5390 5397 5402 5418 5442 5456 5464 5491 5510 5525 5541 5568 5584 5606 5627 5648 5670 5681 5684 5685 5689 5686 5682 5702 5699 5691 5713 5713 5713 5722 5718 5708 5724 5739 5734 5732 5736 5732 5729 5728 5728